星链-34476 (STARLINK-34476)

导读

STARLINK-34476是美国SpaceX公司星链(Starlink)星座的卫星,于2025年6月13日发射升空。星链项目旨在构建覆盖全球的卫星互联网通信系统,该卫星继承了星链星座成熟的技术设计,配备激光通信终端,可实现星间高速互联,为全球用户提供低成本、高性能的宽带互联网接入服务,进一步扩充了星链低轨星座的服务容量与覆盖范围,支撑全球卫星互联网的组网运营。

基本信息
目录编号:
64364
目录名称:
STARLINK-34476
国际标识:
2025-126W
轨道中心:
EARTH
卫星名称:
星链-34476
卫星全名:
星链-34476 (STARLINK-34476)
卫星状态:
在轨 (已飞行365 天)
发射日期:
2025-06-13 UTC
国别 :
美国 (US)
星等 :
--
轨道信息
数据来源 国际轨道数据 AOE轨道数据
星历时间 2026-06-13T16:40:14+0800
12小时前
查看轨道信息
2026-06-13T06:00:00+0800
23小时前
查看轨道信息
半长轴 6950.094km 6950.089km
偏心率 0.0003526 0.0003648
轨道倾角 70.000° 70.000°
近地点辐角 264.441° 266.751°
升交点赤经 153.188° 154.309°
平近点角 95.635° 215.803°
近地点 569.506km 569.416km
远地点 574.408km 574.488km
周期 96.105分钟 96.105分钟
每日圈数 14.983623 14.983636
详细信息
固有亮度:
5
最大亮度:
2.5
卫星平台:
Starlink V1.0
覆盖范围:
全球
运营商:
太空探索技术公司
运营商所在国:
美国
制造商(研发单位):
太空探索技术公司
制造商所在国:
美国
使用方式:
暂无
卫星简介
Starlink 计划是 SpaceX 推出的全球卫星互联网项目,通过发射低轨道卫星,为全球尤其是偏远地区提供高速、低延迟的互联网服务。自 2019 年起,Starlink 已部署数千颗卫星,旨在缩小全球数字鸿沟,推动互联网普及。该项目还为军事、航空等行业提供通信支持,带来广泛经济效益。
2D轨道图
3D轨道图
轨道高度分析图
轨道倾角分析图
轨道综合分析图
查看轨道综合分析图